Location: Hilton Head Island
(32.2163°N, 80.7526°W)
Time: 03:30:44
(UTC-04:00)

Transit 2A Rocket - Pass Details

Date: 06 February 2026
Orbit: 583 x 900 km, 66.7° (Epoch: 11 March)

Event Time Altitude Azimuth Distance (km) Brightness Sun altitude
Rises 03:06:21 0° 353° (N) 3,379 - -52.3°
Reaches altitude 10° 03:10:15 10° 18° (NNE) 2,372 - -51.5°
Maximum altitude 03:12:55 14° 48° (NE) 2,071 - -51.0°
Drops below altitude 10° 03:15:29 10° 78° (ENE) 2,261 - -50.4°
Sets 03:19:00 0° 104° (ESE) 3,102 - -49.7°
Exits shadow 03:19:05 - 105° (ESE) 3,129 8.7 -49.7°
